Location: Newark
(45.7833°N, 9.1833°E)
Time: 17:23:32
(UTC+00:00)

Envisat - Visible Passes

Search period start: 21 January 2020 00:00
Search period end: 31 January 2020 00:00
Orbit: 764 x 766 km, 98.1° (Epoch: 21 January)

Date Brightness Start Highest point End Pass type
(mag) Time Alt. Az. Time Alt. Az. Time Alt. Az.
21 Jan 5.1 05:22:19 10° NNE 05:26:47 30° E 05:31:14 10° SSE visible
21 Jan 3.2 16:38:58 10° SE 16:43:51 50° ENE 16:48:45 10° N visible
21 Jan 5.5 18:19:13 10° SW 18:23:08 22° W 18:27:05 10° NW visible
22 Jan 6.1 04:46:54 10° NE 04:49:38 14° E 04:52:21 10° ESE visible
22 Jan 4.1 17:41:14 10° S 17:46:06 46° W 17:51:01 10° NNW visible
23 Jan 4.0 05:47:27 10° NNE 05:52:25 51° E 05:57:21 10° S visible
23 Jan 3.0 17:04:11 10° SSE 17:09:16 84° ENE 17:14:23 10° NNW visible
23 Jan 6.2 18:46:38 10° WSW 18:48:56 13° W 18:51:15 10° WNW visible
24 Jan 5.5 05:11:17 10° NE 05:15:24 24° E 05:19:31 10° SSE visible
24 Jan 5.2 18:07:27 10° SSW 18:11:45 28° W 18:16:05 10° NW visible
25 Jan 6.4 04:36:39 10° ENE 04:38:11 11° E 04:39:42 10° ESE visible
25 Jan 3.1 06:12:50 10° NNE 06:17:57 86° ESE 06:23:02 10° SSW visible
25 Jan 3.7 17:29:46 10° S 17:34:46 58° W 17:39:48 10° NNW visible
26 Jan 4.5 05:36:16 10° NNE 05:41:04 41° E 05:45:51 10° SSE visible
26 Jan 3.0 16:52:57 10° SSE 16:57:59 68° ENE 17:03:03 10° N visible
26 Jan 6.0 18:34:20 10° SW 18:37:30 16° W 18:40:40 10° NW visible
27 Jan 5.8 05:00:20 10° NE 05:04:00 20° E 05:07:39 10° SE visible
27 Jan 4.8 17:55:47 10° SSW 18:00:22 34° W 18:05:00 10° NNW visible
28 Jan 3.4 06:01:33 10° NNE 06:06:39 70° ESE 06:11:42 10° S visible
28 Jan 3.3 17:18:23 10° S 17:23:27 73° WSW 17:28:33 10° NNW visible
29 Jan 4.9 05:25:08 10° NNE 05:29:43 33° E 05:34:16 10° SSE visible
29 Jan 5.7 18:22:20 10° SW 18:26:05 20° W 18:29:51 10° NW visible
30 Jan 6.1 04:49:32 10° NE 04:52:35 16° E 04:55:36 10° SE visible
30 Jan 4.4 17:44:13 10° S 17:49:00 42° W 17:53:51 10° NNW visible
